N7DQ Weather Reports


time (UTC)temp
C
wind
direction
speed
KPH
gust
KPH
rain 1hr
cm
rain 24hr
cm
rain mn
cm
humidity
%
barometer
mb
20260507065006 12 204 1.6 9.7 0.00 0.00 0.00 79 1022.4
20260507064506 12 274 3.2 16.1 0.00 0.00 0.00 78 1022.4
20260507064005 12 180 3.2 16.1 0.00 0.00 0.00 79 1022.4
20260507063505 12 137 1.6 4.8 0.00 0.00 0.00 79 1022.5
20260507063006 12 216 1.6 4.8 0.00 0.00 0.00 80 1022.5
20260507062506 12 233 0.0 4.8 0.00 0.00 0.00 80 1022.5
20260507062005 12 287 1.6 3.2 0.00 0.00 0.00 80 1022.5
20260507061505 12 240 0.0 9.7 0.00 0.00 0.00 80 1022.4
20260507061006 12 258 3.2 9.7 0.00 0.00 0.00 80 1022.3
20260507060505 12 243 1.6 4.8 0.00 0.00 0.00 80 1022.4
20260507060006 12 240 1.6 4.8 0.00 0.00 0.00 80 1022.3
20260507055505 12 238 1.6 4.8 0.00 0.00 0.00 80 1022.3
20260507055005 12 216 1.6 9.7 0.00 0.00 0.00 80 1022.3
20260507054506 12 260 1.6 9.7 0.00 0.00 0.00 80 1022.3
20260507054005 12 232 1.6 9.7 0.00 0.00 0.00 80 1022.3
20260507053506 12 224 1.6 4.8 0.00 0.00 0.00 80 1022.3
20260507053006 12 242 1.6 4.8 0.00 0.00 0.00 80 1022.4
20260507052505 12 249 1.6 8.0 0.00 0.00 0.00 80 1022.5
20260507052005 12 260 1.6 8.0 0.00 0.00 0.00 79 1022.5
20260507051505 12 239 3.2 9.7 0.00 0.00 0.00 79 1022.5
20260507051006 12 244 1.6 9.7 0.00 0.00 0.00 79 1022.5
20260507050006 12 255 3.2 12.9 0.00 0.00 0.00 79 1022.5
20260507045505 12 233 1.6 4.8 0.00 0.00 0.00 79 1022.5
20260507045005 12 237 1.6 4.8 0.00 0.00 0.00 79 1022.5
20260507044505 12 239 1.6 4.8 0.00 0.00 0.00 79 1022.5
20260507044005 12 236 1.6 4.8 0.00 0.00 0.00 79 1022.6
20260507043506 12 230 1.6 4.8 0.00 0.00 0.00 79 1022.5
20260507043006 12 228 1.6 4.8 0.00 0.00 0.00 78 1022.6
20260507042505 12 239 1.6 4.8 0.00 0.00 0.00 78 1022.6
20260507042006 12 236 0.0 4.8 0.00 0.00 0.00 78 1022.6
20260507041505 12 263 1.6 4.8 0.00 0.00 0.00 77 1022.5
20260507041006 12 243 3.2 12.9 0.00 0.00 0.00 77 1022.5
20260507040505 12 233 1.6 12.9 0.00 0.00 0.00 77 1022.5
20260507030005 13 301 1.6 8.0 0.00 0.00 0.00 75 1022.2
20260507025505 13 196 1.6 4.8 0.00 0.00 0.00 74 1022.2
20260507025005 13 248 1.6 4.8 0.00 0.00 0.00 74 1022.2
20260507024505 13 198 1.6 4.8 0.00 0.00 0.00 74 1022.2
20260507024006 13 247 1.6 4.8 0.00 0.00 0.00 74 1022.2
20260507023506 13 295 1.6 4.8 0.00 0.00 0.00 74 1022.1
20260507023005 13 261 1.6 4.8 0.00 0.00 0.00 74 1022.0
20260507022505 13 244 1.6 4.8 0.00 0.00 0.00 74 1022.0
20260507022006 14 282 1.6 4.8 0.00 0.00 0.00 73 1021.9
20260507021505 14 217 1.6 12.9 0.00 0.00 0.00 73 1021.9
20260507021006 14 124 1.6 12.9 0.00 0.00 0.00 73 1021.9
20260507020505 14 272 3.2 12.9 0.00 0.00 0.00 72 1021.8
20260507020006 14 43 1.6 11.3 0.00 0.00 0.00 74 1021.8
20260507015505 14 258 3.2 14.5 0.00 0.00 0.00 73 1021.9
20260507015006 14 223 1.6 14.5 0.00 0.00 0.00 73 1021.9
20260507014505 14 267 3.2 8.0 0.00 0.00 0.00 73 1021.8
20260507014005 14 253 1.6 12.9 0.00 0.00 0.00 74 1021.8
20260507013505 14 237 1.6 12.9 0.00 0.00 0.00 73 1021.8
20260507013005 14 244 3.2 12.9 0.00 0.00 0.00 72 1021.9
20260507012505 15 249 1.6 8.0 0.00 0.00 0.00 72 1021.9
20260507012006 15 221 1.6 8.0 0.00 0.00 0.00 73 1021.9
20260507011505 15 247 1.6 4.8 0.00 0.00 0.00 72 1022.0
20260507010505 15 244 1.6 12.9 0.00 0.00 0.00 71 1022.0
20260507010005 15 225 3.2 12.9 0.00 0.00 0.00 70 1022.1
20260507005505 15 252 3.2 12.9 0.00 0.00 0.00 71 1022.1
20260507005005 15 233 3.2 12.9 0.00 0.00 0.00 71 1022.1
20260507004505 15 218 1.6 8.0 0.00 0.00 0.00 70 1022.1
20260507004006 15 214 1.6 11.3 0.00 0.00 0.00 71 1022.0
20260507003505 15 206 3.2 12.9 0.00 0.00 0.00 70 1022.0
20260507003005 15 243 4.8 12.9 0.00 0.00 0.00 69 1022.0
20260507002505 15 215 3.2 12.9 0.00 0.00 0.00 70 1022.2
20260507002005 15 256 1.6 12.9 0.00 0.00 0.00 69 1022.0
20260507001505 16 235 3.2 11.3 0.00 0.00 0.00 69 1022.0
20260507001005 16 228 3.2 11.3 0.00 0.00 0.00 70 1022.1
20260507000505 16 214 1.6 4.8 0.00 0.00 0.00 70 1022.2
20260507000005 16 206 1.6 4.8 0.00 0.00 0.00 69 1022.1
20260506235505 16 191 3.2 9.7 0.00 0.00 0.00 69 1022.1
20260506225505 16 232 1.6 11.3 0.00 0.00 0.00 71 1022.0
20260506225005 16 206 3.2 11.3 0.00 0.00 0.00 71 1022.0
20260506224505 16 261 3.2 11.3 0.00 0.00 0.00 71 1022.0
20260506224005 16 240 4.8 9.7 0.00 0.00 0.00 70 1022.2
20260506223505 16 256 1.6 4.8 0.00 0.00 0.00 69 1022.2
20260506223005 16 222 1.6 4.8 0.00 0.00 0.00 70 1022.3
20260506222504 16 241 1.6 4.8 0.00 0.00 0.00 70 1022.2
20260506222005 16 254 1.6 4.8 0.00 0.00 0.00 69 1022.2
20260506221505 16 201 1.6 11.3 0.00 0.00 0.00 69 1022.3
20260506221005 16 38 3.2 11.3 0.00 0.00 0.00 68 1022.4
20260506220505 16 178 1.6 8.0 0.00 0.00 0.00 68 1022.4
20260506220005 16 246 1.6 12.9 0.00 0.00 0.00 68 1022.3
20260506215504 16 260 1.6 12.9 0.00 0.00 0.00 69 1022.2
20260506215006 16 272 3.2 8.0 0.00 0.00 0.00 68 1022.2
20260506214505 16 250 3.2 11.3 0.00 0.00 0.00 69 1022.3
20260506214005 16 231 3.2 11.3 0.00 0.00 0.00 68 1022.3
20260506213506 17 213 1.6 4.8 0.00 0.00 0.00 69 1022.3
20260506213005 17 221 0.0 4.8 0.00 0.00 0.00 69 1022.2
20260506212506 17 202 1.6 11.3 0.00 0.00 0.00 67 1022.3
20260506212005 17 194 3.2 11.3 0.00 0.00 0.00 67 1022.2
20260506211505 17 225 1.6 9.7 0.00 0.00 0.00 67 1022.3
20260506211005 17 197 1.6 8.0 0.00 0.00 0.00 68 1022.2
20260506210505 17 263 1.6 11.3 0.00 0.00 0.00 66 1022.2
20260506210005 17 188 3.2 11.3 0.00 0.00 0.00 66 1022.3
20260506205505 17 228 3.2 11.3 0.00 0.00 0.00 65 1022.2
20260506205006 17 291 1.6 9.7 0.00 0.00 0.00 67 1022.2
20260506204505 17 229 1.6 9.7 0.00 0.00 0.00 69 1022.1
20260506204005 17 9 3.2 4.8 0.00 0.00 0.00 67 1022.2
20260506203505 17 345 1.6 8.0 0.00 0.00 0.00 69 1022.3
20260506203005 16 344 3.2 8.0 0.00 0.00 0.00 69 1022.3
20260506202505 16 280 3.2 4.8 0.00 0.00 0.00 68 1022.2
20260506202005 16 205 1.6 4.8 0.00 0.00 0.00 70 1022.1
20260506201505 16 26 1.6 4.8 0.00 0.00 0.00 70 1022.1
20260506201005 16 212 1.6 4.8 0.00 0.00 0.00 70 1022.1
20260506200505 16 237 0.0 12.9 0.00 0.00 0.00 71 1022.1
20260506200005 16 228 1.6 12.9 0.00 0.00 0.00 70 1022.1
20260506195505 16 235 3.2 12.9 0.00 0.00 0.00 71 1022.1
20260506195005 16 284 3.2 4.8 0.00 0.00 0.00 69 1022.1
20260506194504 16 240 1.6 3.2 0.00 0.00 0.00 70 1022.0
20260506194005 16 163 1.6 4.8 0.00 0.00 0.00 71 1022.1
20260506193504 16 71 1.6 4.8 0.00 0.00 0.00 70 1022.1
20260506193005 16 253 1.6 3.2 0.00 0.00 0.00 70 1022.0
20260506192504 16 355 1.6 4.8 0.00 0.00 0.00 71 1022.1
20260506192005 16 2 1.6 4.8 0.00 0.00 0.00 70 1022.2
20260506191508 16 206 1.6 4.8 0.00 0.00 0.00 70 1022.1
20260506191005 16 258 1.6 4.8 0.00 0.00 0.00 71 1022.0
20260506190504 15 248 1.6 4.8 0.00 0.00 0.00 71 1022.0
20260506190006 15 228 3.2 4.8 0.00 0.00 0.00 71 1022.1
20260506185505 15 195 1.6 4.8 0.00 0.00 0.00 72 1021.8
20260506185005 15 218 1.6 4.8 0.00 0.00 0.00 70 1022.1
20260506184505 15 241 1.6 4.8 0.00 0.00 0.00 71 1022.1
20260506184005 15 176 1.6 4.8 0.00 0.00 0.00 71 1022.1
20260506183505 15 282 1.6 4.8 0.00 0.00 0.00 72 1022.1
20260506183006 15 211 1.6 4.8 0.00 0.00 0.00 71 1022.1
20260506182505 15 250 1.6 4.8 0.00 0.00 0.00 70 1022.0
20260506182005 15 284 3.2 4.8 0.00 0.00 0.00 70 1022.0
20260506181504 15 193 1.6 4.8 0.00 0.00 0.00 71 1022.0
20260506181007 15 68 1.6 3.2 0.00 0.00 0.00 70 1021.9
20260506180508 15 246 1.6 3.2 0.00 0.00 0.00 71 1021.9
20260506180007 15 62 1.6 3.2 0.00 0.00 0.00 72 1021.9
20260506175508 15 236 1.6 4.8 0.00 0.00 0.00 72 1022.0
20260506175008 15 204 1.6 4.8 0.00 0.00 0.00 72 1022.0
20260506174508 15 202 0.0 4.8 0.00 0.00 0.00 74 1022.0
20260506174008 15 217 1.6 4.8 0.00 0.00 0.00 74 1022.0
20260506173508 15 207 0.0 4.8 0.00 0.00 0.00 74 1021.8
20260506173008 14 262 1.6 4.8 0.00 0.00 0.00 74 1021.9
20260506172508 14 204 1.6 4.8 0.00 0.00 0.00 74 1021.8
20260506172008 14 246 1.6 3.2 0.00 0.00 0.00 75 1021.8
20260506171507 14 262 1.6 4.8 0.00 0.00 0.00 74 1021.6
20260506171007 14 245 1.6 4.8 0.00 0.00 0.00 75 1021.6
20260506170508 14 352 1.6 3.2 0.00 0.00 0.00 76 1021.6
20260506170007 14 232 0.0 3.2 0.00 0.00 0.00 76 1021.7
20260506165508 14 238 0.0 4.8 0.00 0.00 0.00 77 1021.7
20260506165007 14 190 1.6 4.8 0.00 0.00 0.00 76 1021.7
20260506164507 14 214 1.6 4.8 0.00 0.00 0.00 76 1021.5
20260506164008 13 194 1.6 4.8 0.00 0.00 0.00 77 1021.6
20260506163507 13 292 0.0 3.2 0.00 0.00 0.00 76 1021.5
20260506163007 13 200 1.6 4.8 0.00 0.00 0.00 77 1021.4
20260506162507 13 225 1.6 4.8 0.00 0.00 0.00 77 1021.4
20260506162007 13 193 3.2 4.8 0.00 0.00 0.00 76 1021.4
20260506161508 13 204 1.6 3.2 0.00 0.00 0.00 76 1021.4
20260506161007 13 305 1.6 3.2 0.00 0.00 0.00 76 1021.4
20260506160507 13 134 0.0 4.8 0.00 0.00 0.00 77 1021.5
20260506160007 13 221 0.0 4.8 0.00 0.00 0.00 77 1021.4
20260506155507 13 257 1.6 4.8 0.00 0.00 0.00 76 1021.4
20260506155007 13 264 1.6 4.8 0.00 0.00 0.00 77 1021.3
20260506154507 13 255 0.0 8.0 0.00 0.00 0.00 78 1021.3
20260506154007 13 209 3.2 8.0 0.00 0.00 0.00 78 1021.3
20260506153507 13 242 0.0 3.2 0.00 0.00 0.00 77 1021.3
20260506153007 13 236 1.6 3.2 0.00 0.00 0.00 79 1021.3
20260506152507 13 209 1.6 3.2 0.00 0.00 0.00 78 1021.2
20260506152007 13 222 1.6 3.2 0.00 0.00 0.00 79 1021.3
20260506151507 13 259 0.0 3.2 0.00 0.00 0.00 78 1021.3
20260506151008 13 258 1.6 8.0 0.00 0.00 0.00 79 1021.3
20260506150507 13 236 1.6 8.0 0.00 0.00 0.00 78 1021.0
20260506150007 12 213 1.6 4.8 0.00 0.00 0.00 79 1020.9
20260506145507 12 205 3.2 4.8 0.00 0.00 0.00 80 1020.9
20260506145007 12 196 0.0 4.8 0.00 0.00 0.00 79 1020.7
20260506144507 12 199 1.6 4.8 0.00 0.00 0.00 80 1020.6
20260506144007 12 176 1.6 4.8 0.00 0.00 0.00 80 1020.6
20260506143511 12 179 3.2 4.8 0.00 0.00 0.00 80 1020.7
20260506143007 12 184 1.6 4.8 0.00 0.00 0.00 80 1020.8
20260506142507 12 220 0.0 4.8 0.00 0.00 0.00 80 1021.0
20260506142008 12 269 1.6 4.8 0.00 0.00 0.00 80 1021.1
20260506141507 12 244 0.0 3.2 0.00 0.00 0.00 81 1021.1
20260506141007 12 245 1.6 4.8 0.00 0.00 0.00 80 1021.1
20260506140507 12 196 1.6 4.8 0.00 0.00 0.00 81 1021.2
20260506140007 12 261 0.0 1.6 0.00 0.00 0.00 82 1021.2
20260506135507 12 291 0.0 1.6 0.00 0.00 0.00 82 1021.0
20260506135007 12 291 0.0 4.8 0.00 0.00 0.00 82 1021.0
20260506134506 12 269 0.0 4.8 0.00 0.00 0.00 82 1020.9
20260506134007 12 269 1.6 3.2 0.00 0.00 0.00 82 1020.9
20260506133506 12 247 0.0 3.2 0.00 0.00 0.00 82 1021.0
20260506133007 12 289 1.6 3.2 0.00 0.00 0.00 82 1020.8
20260506132506 12 221 0.0 1.6 0.00 0.00 0.00 83 1020.6
20260506132007 12 217 0.0 3.2 0.00 0.00 0.00 83 1020.6
20260506131507 12 242 0.0 4.8 0.00 0.00 0.00 83 1020.4
20260506131007 12 201 1.6 4.8 0.00 0.00 0.00 82 1020.4
20260506130507 12 248 0.0 4.8 0.00 0.00 0.00 82 1020.5
20260506130007 12 229 1.6 4.8 0.00 0.00 0.00 82 1020.5
20260506125507 12 230 0.0 3.2 0.00 0.00 0.00 83 1020.3
20260506125008 12 215 1.6 3.2 0.00 0.00 0.00 83 1020.4
20260506124507 12 249 0.0 3.2 0.00 0.00 0.00 82 1020.2
20260506124007 12 208 0.0 3.2 0.00 0.00 0.00 83 1020.2
20260506123507 12 231 0.0 3.2 0.00 0.00 0.00 83 1020.2
20260506123007 12 231 0.0 3.2 0.00 0.00 0.00 83 1020.2
20260506122507 12 210 0.0 1.6 0.00 0.00 0.00 84 1020.1
20260506122007 12 210 0.0 1.6 0.00 0.00 0.00 84 1020.1
20260506121507 12 210 0.0 4.8 0.00 0.00 0.00 84 1020.1
20260506121007 12 200 0.0 4.8 0.00 0.00 0.00 84 1020.1
20260506120507 12 192 1.6 4.8 0.00 0.00 0.00 83 1020.1
20260506120006 12 198 1.6 4.8 0.00 0.00 0.00 83 1020.0
20260506115507 12 204 1.6 4.8 0.00 0.00 0.00 83 1020.0
20260506115007 12 234 0.0 4.8 0.00 0.00 0.00 82 1020.0
20260506114508 12 234 1.6 4.8 0.00 0.00 0.00 82 1020.0
20260506114007 12 228 0.0 1.6 0.00 0.00 0.00 82 1019.9
20260506113507 12 220 0.0 3.2 0.00 0.00 0.00 83 1019.8
20260506113007 12 196 0.0 4.8 0.00 0.00 0.00 83 1019.8
20260506112507 12 187 1.6 4.8 0.00 0.00 0.00 83 1019.9
20260506112007 12 205 0.0 1.6 0.00 0.00 0.00 84 1019.9
20260506111507 12 205 0.0 3.2 0.00 0.00 0.00 83 1019.9
20260506111007 12 205 0.0 3.2 0.00 0.00 0.00 83 1019.9
20260506110507 12 209 0.0 3.2 0.00 0.00 0.00 82 1019.9
20260506110007 12 244 0.0 3.2 0.00 0.00 0.00 82 1019.8
20260506105507 12 244 0.0 3.2 0.00 0.00 0.00 82 1019.7
20260506105008 12 241 0.0 3.2 0.00 0.00 0.00 82 1019.6
20260506104506 12 265 0.0 4.8 0.00 0.00 0.00 81 1019.6
20260506104008 12 283 1.6 4.8 0.00 0.00 0.00 81 1019.5
20260506103507 12 272 0.0 8.0 0.00 0.00 0.00 81 1019.5
20260506103007 12 202 1.6 8.0 0.00 0.00 0.00 81 1019.4
20260506102507 12 273 1.6 3.2 0.00 0.00 0.00 81 1019.3
20260506092007 13 243 0.0 4.8 0.00 0.00 0.00 82 1019.0
20260506091506 13 236 0.0 4.8 0.00 0.00 0.00 82 1019.0
20260506091007 13 239 0.0 4.8 0.00 0.00 0.00 82 1019.0
20260506090507 13 266 1.6 4.8 0.00 0.00 0.00 82 1019.0
20260506090006 13 280 0.0 4.8 0.00 0.00 0.00 82 1019.0
20260506085507 13 225 0.0 4.8 0.00 0.00 0.00 82 1019.0
20260506085007 13 224 0.0 4.8 0.00 0.00 0.00 82 1019.1
20260506084507 13 220 0.0 4.8 0.00 0.00 0.00 82 1019.1
20260506084008 13 255 0.0 4.8 0.00 0.00 0.00 83 1019.0
20260506083507 13 207 1.6 4.8 0.00 0.00 0.00 83 1019.0
20260506083007 13 270 0.0 3.2 0.00 0.00 0.00 83 1018.9
20260506082506 13 296 0.0 3.2 0.00 0.00 0.00 82 1018.8
20260506082011 13 269 0.0 4.8 0.00 0.00 0.00 82 1018.8
20260506081507 13 201 1.6 4.8 0.00 0.00 0.00 82 1018.7
20260506081007 13 217 0.0 9.7 0.00 0.00 0.00 83 1018.7
20260506080507 13 266 1.6 9.7 0.00 0.00 0.00 82 1018.6
20260506073507 13 203 1.6 4.8 0.00 0.00 0.00 82 1018.2
20260506073007 13 232 1.6 9.7 0.00 0.00 0.00 82 1018.2
20260506072507 13 227 1.6 9.7 0.00 0.00 0.00 82 1018.2
20260506072007 13 243 0.0 8.0 0.00 0.00 0.00 82 1018.1
20260506071507 13 215 1.6 8.0 0.00 0.00 0.00 82 1018.1
20260506071007 13 203 0.0 8.0 0.00 0.00 0.00 82 1018.1
20260506070507 13 254 1.6 4.8 0.00 0.00 0.00 82 1018.1